STARLINK-36243, 67077

Orbit data source: Space-Track

STARLINK-36243, 67077 is a payload satellite owned by SpaceX/Seattle (US) in LEO that was launched on Sun, 14 Dec 2025 UTC via an FALCON 9 launch vehicle from the Air Force Western Test Range (AFWTR). Payload-class satellites include a variety of spacecraft equipped with specific instruments for various scientific and technological missions. These include communications satellites like Starlink; space stations such as the ISS; scientific satellites like the Hubble; Earth observation satellites from companies like Planet Labs, Umbra, and HawkEye 360; GPS; miniature CubeSats for education and research; and military/defense satellites.

Loading next visibility...
Identifier
67077, 2025-298C
Orbit
LEO
Country
Flag of USUS
Related business
Manufacturer
SpaceX/Seattle
Mission
Operational Commercial Communications
Bus & Motor
STARLINK V2MO, Unknown motor
Mass
575 kg wet, ~530 kg dry
Launch date (UTC)
2025-12-14 (6 months ago)
Launch vehicle
FALCON 9
Launch site
Air Force Western Test Range (AFWTR)
Object type
Payload
Rocket body
Debris
Shape & HBR
Box + 2 Pan, 17.7 m
Radar Cross Section
36.964 m², Large (>1 m²)

Expand to show TLE details & history
Last TLE update: 15 hours ago

TLE from 15 hours ago
0 STARLINK-36243
1 67077U 25298C   26171.23751336  .00003514  00000-0  30208-3 0  9999
2 67077  70.0012 116.0767 0003288 260.4414  99.6373 14.98336402 28578
Epoch: 2026-06-20T05:42Z
TLE epoch observation values (Epoch: 2026-06-20T05:42:01.154Z)
Latitude
-0.00007°
Longitude
122.11685°
Altitude
574.843 km
Speed
7.573 km/s
True Right ascension
07h 44m 18s
True Declination
0° 00' 00"
Sunlit
Object was in daylight at epoch
Visualization orbit readout
Latitude
Unknown
Longitude
Unknown
Altitude
Unknown
Speed
Unknown
Apparent Right ascension
Unknown
Apparent Declination
Unknown
Sunlit
N/A
Visualization observer readout
Local Sidereal Time
07:20:23
Azimuth
Unknown
Elevation
Unknown
Doppler factor
Unknown
Orbital elements
Apogee altitude
572.269 km
Perigee altitude
567.7 km
Semi-major axis
6,948.121 km
Eccentricity
0.00033
Inclination
70.0012°
RAAN
116.0767°
Arg. of periapsis
260.4414°
True anomaly
99.67444°
Mean anomaly
99.6373°
Eccentric anomaly
99.65587°
Mean motion
3.7475 °/min
Orbital period
96.06 mins
BSTAR
0.00030208
Loading maneuver chart data...
Computing Atmospheric mass density...
Loading historical data...
Loading historical data...
Loading historical data...
Loading historical data...
Loading historical data...
Loading historical data...
Loading historical data...

Documentation

Showing up to 5 results
|